{"data":{"norad_id":51138,"epoch":"2026-09-20T04:09:32.406336Z","epoch_age_seconds":76422,"freshness":"FRESH","line1":"1 51138U 22005AL  26263.17329174  .00002533  00000+0  16479-3 0  9992","line2":"2 51138  53.1717 144.5011 0003080  87.9820 272.1526 15.11575238258104","mean_motion":15.11575238,"eccentricity":0.000308,"inclination_deg":53.1717,"raan_deg":144.5011,"arg_perigee_deg":87.982,"mean_anomaly_deg":272.1526,"bstar":0.00016479,"rev_number":25810,"period_min":95.264857732474,"perigee_km":529.26733435865,"apogee_km":533.52360636039,"semimajor_km":6909.5324703595,"source":"CELESTRAK","updated_at":"2026-09-20T09:00:39.590420Z"}}